Terminal Aerodrome Forecast
Issued by NWS Wilmington, OH

Current Version | Previous Version | Graphics & Text | Print | Product List | Glossary On
Versions: 1 2 3 4 5 6 7 8 9 10 11 12 13 14 15 16 17 18 19 20 21 22 23 24 25 26 27 28
000
FTUS41 KILN 131700
TAFCVG
TAF
KCVG 131740Z 1318/1424 20020G30KT P6SM SCT040 BKN200
     FM132200 18012G20KT P6SM SCT070 BKN150
     FM140900 19015G22KT P6SM VCSH BKN050 OVC150
     FM141200 18018G30KT P6SM -SHRA OVC060
     FM141400 20020G35KT P6SM -SHRA OVC060
     FM141900 24015G28KT P6SM -SHRA VCTS OVC025CB
     FM142200 27014G24KT P6SM -SHRA OVC025=

USA.gov is the U.S. government's official web portal to all federal, state and local government web resources and services.